Regional Weather Roundup
Issued by NWS

Home | Current Version | Previous Version | Text Only | Print | Product List | Glossary Off
Versions: 1 2 3 4 5 6 7 8 9 10 11 12 13 14 15 16 17 18 19 20 21 22 23 24 25 26 27 28 29 30 31 32 33 34 35 36 37 38 39 40 41 42 43 44 45 46 47 48 49 50

000
ASUS43 KMPX 040001
RWRMN
WEATHER ROUNDUP FOR MINNESOTA
NATIONAL WEATHER SERVICE TWIN CITIES/CHANHASSEN MN
700 PM CDT MON AUG 03 2015


NOTE: "FAIR" INDICATES FEW OR NO CLOUDS BELOW 12,000 FEET WITH NO
SIGNIFICANT WEATHER AND/OR OBSTRUCTIONS TO VISIBILITY. N/A MEANS
CURRENT SKY AND/OR WEATHER CONDITIONS ARE NOT AVAILABLE.

MNZ060>063-068>070-040100-
   Twin Cities Metro

CITY           SKY/WX    TMP DP  RH WIND       PRES   REMARKS
TWIN CITIES    MOSUNNY   76  50  40 W12       29.89S
6HR MIN TEMP:  75; 6HR MAX TEMP:  80;

ST PAUL        PTSUNNY   76  50  40 NW16G22   29.88S
CRYSTAL        MOSUNNY   78  51  38 W13       29.87F
BLAINE         PTSUNNY   77  48  36 NW13G21   29.88F
LAKEVILLE      MOSUNNY   73  52  46 W8        29.90S
EDEN PRAIRIE   MOSUNNY   78  52  40 W13       29.89S
6HR MIN TEMP:  77; 6HR MAX TEMP:  80;

SOUTH ST PAUL  MOSUNNY   76  48  36 W7        29.88F
LAKE ELMO      FAIR      73  54  49 NW6       29.89F
$$
MNZ001>005-007-008-013>017-022>024-027-028-040100-
   Northwest Minnesota

CITY           SKY/WX    TMP DP  RH WIND       PRES   REMARKS
BEMIDJI        MOSUNNY   67  48  49 NW12      29.91F
HALLOCK        SUNNY     75  45  33 NW10G16   29.89S
ROSEAU         MOSUNNY   70  55  60 NW12      29.89F
WARROAD        MOSUNNY   68  54  60 NW9       29.89S
THIEF RVR FALL SUNNY     72  48  43 NW12      29.92F
CROOKSTON      SUNNY     75  48  38 N10       29.92S
FOSSTON        SUNNY     73  45  35 NW15      29.93F
DETROIT LAKES  SUNNY     72  48  43 N9G16     29.94F
MOORHEAD       SUNNY     73  48  40 NW7       29.93S
PARK RAPIDS    MOSUNNY   73  48  41 NW13      29.92S
MAHNOMEN       FAIR      71  50  46 N12       29.92S
$$
MNZ006-009>011-018-025>026-040100-
   North Central Minnesota

CITY           SKY/WX    TMP DP  RH WIND       PRES   REMARKS
BAUDETTE       SUNNY     67  53  61 NW6       29.87F
FLAG ISLAND    MOSUNNY   66  52  59 NW20      29.87R
INTL FALLS     CLOUDY    63  54  72 NW6       29.87S
6HR MIN TEMP:  60; 6HR MAX TEMP:  66; 6HR PCP:  0.04;

WASKISH        SUNNY     70  52  52 NW9G18    29.89F
BIG FORK       MOSUNNY   66  52  59 NW7       29.90S
LONGVILLE      MOSUNNY   70  54  56 N5        29.91R
GRAND RAPIDS   CLOUDY    66  50  55 NW14G24   29.91R
CRANE LAKE     MOSUNNY   61  57  88 W2        29.87S
ORR            CLOUDY    61  55  82 NW10      29.86S
COOK           LGT RAIN  57  55  94 W6        29.89R
WALKER         FAIR      68  49  50 NW9       29.91S
$$
MNZ012-019>021-037-040100-
   Northeast Minnesota

CITY           SKY/WX    TMP DP  RH WIND       PRES   REMARKS
DULUTH         PTSUNNY   68  53  58 NW10G20   29.86S
6HR MIN TEMP:  66; 6HR MAX TEMP:  71;

ELY            RAIN      59  55  88 W9        29.85S
HIBBING        CLOUDY    66  51  58 NW16G25   29.88S
EVELETH        MOSUNNY   64  50  59 NW15G23   29.88R
DULUTH HARBOR  PTSUNNY   72  57  60 W14       29.85S
TWO HARBORS    CLOUDY    72  57  60 W5        29.83S
SILVER BAY     MOSUNNY   64  57  77 CALM      29.82S
GRAND MARAIS     N/A     69  53  56 NW9       29.77S
G MARAIS ARPRT CLOUDY    59  52  77 W6        29.82R
$$
MNZ029>031-032-039>041-046>048-054>057-064-040100-
   West Central Minnesota

CITY           SKY/WX    TMP DP  RH WIND       PRES   REMARKS
FERGUS FALLS   SUNNY     75  50  41 N7        29.92S
WHEATON        SUNNY     73  50  43 NW7       29.95S
MORRIS         SUNNY     75  48  38 NW10      29.93S
ALEXANDRIA     SUNNY     74  46  36 NW12      29.94F
ELBOW LAKE     FAIR      74  51  44 N8        29.93S
WADENA         SUNNY     73  50  43 NW13G18   29.92S
GLENWOOD       SUNNY     73  48  40 NW12      29.94S
APPLETON       SUNNY     79  52  38 N8        29.92S
BENSON         SUNNY     75  46  35 N9        29.93S
ORTONVILLE     SUNNY     75  52  43 N10       29.94R
MADISON        SUNNY     77  54  44 N5        29.93F
WILLMAR        FAIR      77  52  41 NW10      29.94S
$$
MNZ033>034-036-042>043-049>051-058-059-040100-
   Central Minnesota

CITY           SKY/WX    TMP DP  RH WIND       PRES   REMARKS
ST CLOUD       SUNNY     76  50  40 NW12      29.89S
6HR MIN TEMP:  73; 6HR MAX TEMP:  79;

SAUK CENTRE    FAIR      74  49  40 W9        29.92S
PAYNESVILLE    SUNNY     73  50  44 W10       29.92F
AITKIN         MOSUNNY   72  54  53 NW7       29.88F
PINE RIVER     SUNNY     72  52  49 NW14G22   29.93S
BRAINERD       MOSUNNY   72  50  45 NW12      29.90S
STAPLES        SUNNY     72  48  43 NW10      29.91S
LONG PRAIRIE   FAIR      73  50  43 W10       29.93S
LITTLE FALLS     N/A     73  46  38 NW9       29.91R
LITCHFIELD     SUNNY     75  50  41 NW10      29.92S
BUFFALO        PTSUNNY   75  51  41 W9        29.90F
$$
MNZ037-044-045-052-053-040100-
   East Central Minnesota

CITY           SKY/WX    TMP DP  RH WIND       PRES   REMARKS
PRINCETON      SUNNY     75  52  43 W8        29.89S
MORA           PTSUNNY   70  54  56 NW5       29.90S
CAMBRIDGE      MOSUNNY   77  55  47 W8        29.87S
RUSH CITY      CLOUDY    73  55  53 NW3       29.88S
MOOSE LAKE     CLOUDY    70  52  52 NW6       29.86S
HINCKLEY       CLOUDY    72  55  56 NW5       29.88S
CLOQUET        CLOUDY    68  52  56 W9        29.87S
MCGREGOR       PTSUNNY   70  54  56 NW5G16    29.89S
$$
MNZ071>073-080-081-089-090-097-098-040100-
   Southwest Minnesota

CITY           SKY/WX    TMP DP  RH WIND       PRES   REMARKS
MONTEVIDEO     SUNNY     79  54  41 N8        29.95S
GRANITE FALLS  SUNNY     76  54  46 NW7       29.94F
CANBY          SUNNY     77  53  43 N5        29.95S
MARSHALL       SUNNY     77  54  44 N9        29.95F
REDWOOD FALLS  SUNNY     78  50  37 NW9       29.92F
OLIVIA         SUNNY     72  50  46 NW9       29.92S
PIPESTONE      MOSUNNY   79  55  44 N9        29.96S
WINDOM         SUNNY     77  55  47 NW7       29.94S
WORTHINGTON    MOSUNNY   75  55  50 NW8       29.96S
JACKSON        SUNNY     77  57  50 NW8       29.95F
TRACY          MOSUNNY   77  59  53 NW3       29.95S
SLAYTON        SUNNY     78  56  46 CALM      29.96F
$$
MNZ065>067-074>077-082>085-091>093-040100-
   South Central Minnesota

CITY           SKY/WX    TMP DP  RH WIND       PRES   REMARKS
MANKATO        SUNNY     75  50  41 NW8       29.92S
NEW ULM        SUNNY     75  52  43 NW7       29.92S
FAIRMONT       SUNNY     77  52  41 NW9       29.93F
GLENCOE        SUNNY     76  56  50 NW8       29.91S
FARIBAULT      SUNNY     73  54  49 W9        29.92S
OWATONNA       SUNNY     75  52  43 W8        29.92F
WASECA         SUNNY     72  52  49 W6        29.93F
ALBERT LEA     SUNNY     75  52  43 NW8       29.93S
$$
MNZ078>079-086>088-094>096-040100-
   Southeast Minnesota

CITY           SKY/WX    TMP DP  RH WIND       PRES   REMARKS
ROCHESTER      SUNNY     72  53  51 NW9       29.93S
6HR MIN TEMP:  72; 6HR MAX TEMP:  75;

RED WING       PTSUNNY   79  46  31 NW7       29.87S
STANTON        SUNNY     75  51  43 NW9       29.89S
DODGE CENTER   MOSUNNY   73  50  43 W8        29.92F
WINONA         MOSUNNY   77  52  41 NW10      29.89S
AUSTIN         SUNNY     75  50  41 NW7       29.92S
PRESTON        SUNNY     72  52  49 NW8       29.93S
$$
ABBREVIATIONS USED IN REMARKS
   TC - TEMPERATURES IN CELSIUS
  WCI - WIND CHILL INDEX
   HX - HEAT INDEX
  VSB - VISIBILITY
$$


USA.gov is the U.S. government's official web portal to all federal, state and local government web resources and services.